Regional Weather Roundup
Issued by NWS

Home | Current Version | Previous Version | Text Only | Print | Product List | Glossary Off
Versions: 1 2 3 4 5 6 7 8 9 10 11 12 13 14 15 16 17 18 19 20 21 22 23 24 25 26 27 28 29 30 31 32 33 34 35 36 37 38 39 40 41 42 43 44 45 46 47 48 49 50

789
ASUS44 KJAN 271910
RWRMS

MISSISSIPPI HOURLY WEATHER ROUNDUP
NATIONAL WEATHER SERVICE JACKSON MS
100 PM CST FRI FEB 27 2015

NOTE: "FAIR: INDICATES FEW OR NO CLOUDS BELOW 12,000 FEET WITH NO
SIGNIFICANT WEATHER AND/OR OBSTRUCTIONS TO VISIBILITY.

MSZ001>002-007>008-010>013-018>021-025>028-034>036-272000-
NORTHWEST MISSISSIPPI

CITY           SKY/WX    TMP DP  RH WIND       PRES   REMARKS
CLARKSDALE     FAIR      30  19  64 N15       30.54F WCI  19
CLEVELAND      MOCLDY    32  24  71 NE14      30.51F WCI  22
GREENWOOD        N/A    N/A N/A N/A MISG      30.50F
GREENVILLE     MOSUNNY   31  22  69 NE15      30.50F WCI  20
OLIVE BRANCH   PTSUNNY   30  19  64 E12       30.53F WCI  21
OXFORD         FAIR      32  18  55 E7G16     30.51F WCI  26
TUNICA         MOCLDY    32  19  59 N8        30.55F WCI  25
$$

MSZ003>006-009-014>017-022>024-029>033-037>039-272000-
NORTHEAST MISSISSIPPI

CITY           SKY/WX    TMP DP  RH WIND       PRES   REMARKS
COLUMBUS AFB   SUNNY     37  17  45 NE9       30.48F WCI  30
CORINTH        FAIR      34  10  37 CALM      30.51F
GOLDN TRIANGLE SUNNY     39  21  48 NE9       30.47F WCI  33
STARKVILLE     FAIR      36  25  64 N8        30.47F WCI  29
TUPELO         SUNNY     36  17  46 E8        30.49F WCI  30
$$

MSZ040-058-272000-
CENTRAL MISSISSIPPI

CITY           SKY/WX    TMP DP  RH WIND       PRES   REMARKS
JACKSON INTL   MOSUNNY   41  25  53 N10       30.43F
JACKSON HAWKNS SUNNY     39  24  55 VRB7      30.43F WCI  34
MERIDIAN KEY   SUNNY     45  25  45 N7        30.42F
MERIDIAN NAS   SUNNY     44  22  41 NE14G20   30.43F
VICKSBURG      MOSUNNY   36  25  64 N7G17     30.47F WCI  30
$$

MSZ059>079-272000-
SOUTH MISSISSIPPI

CITY           SKY/WX    TMP DP  RH WIND       PRES   REMARKS
BROOKHAVEN     FAIR      39  30  70 N9        30.40F WCI  33
HATTIESBURG    SUNNY     43  30  60 N13       30.41F
MCCOMB         SUNNY     43  28  55 N9        30.38F
NATCHEZ        SUNNY     43  27  52 NE8       30.41F
PINE BELT      MOSUNNY   43  28  56 NE8       30.40F
$$

MSZ080>082-272000-
COASTAL MISSISSIPPI

CITY           SKY/WX    TMP DP  RH WIND       PRES   REMARKS
BAY ST LOUIS   SUNNY     52  27  37 NE12G20   30.35F
BILOXI         SUNNY     53  30  41 NE12      30.33F
PASCAGOULA     SUNNY     54  31  41 N10       30.33F
GULFPORT       SUNNY     52  30  43 NE13G20   30.33F
$$



USA.gov is the U.S. government's official web portal to all federal, state and local government web resources and services.